[[[{"header":{"parameterUnit":"kt","parameterCategory":2,"dx":1,"dy":1,"la1":30.253999710083008,"la2":30.299108505249023,"lo1":-89.0895004272461,"lo2":-89.04439544677734,"nx":28,"ny":28,"refTime":"2022-09-22T21:00:00:Z","depth":"0","parameterNumber":2,"parameterNumberName":"U-component_of_CURRENTS"},"data":[0.2481,0.2466,0.2503,0.2416,0.2412,0.229,0.2233,0.2137,0.2072,0.1886,0.177,0.1761,0.1825,0.1689,0.1565,0.1537,0.141,0.1222,0.1333,0.1675,0.1733,0.1788,0.171,0.1229,0.1227,0.0817,0.0812,0.0808,0.2585,0.2623,0.2623,0.2633,0.2588,0.2631,0.2569,0.2488,0.2366,0.2307,0.2232,0.2148,0.2173,0.2272,0.2318,0.22,0.2208,0.2068,0.1879,0.1943,0.2492,0.2432,0.2098,0.2098,0.2098,0.2098,0.2098,0.2098,0.2751,0.2754,0.2805,0.281,0.2805,0.2771,0.2715,0.2696,0.263,0.2518,0.258,0.2492,0.2573,0.2798,0.2868,0.2814,0.2896,0.2762,0.264,0.2562,0.2497,0.3107,0.292,0.2922,0.2924,0.2926,0.2927,0,0.2879,0.2939,0.2964,0.2975,0.2965,0.297,0.2951,0.2917,0.2942,0.2888,0.2816,0.2805,0.2918,0.2965,0.3125,0.3205,0.313,0.3294,0.3167,0.2815,0.2659,0.2693,0.3403,0.3189,0.3193,0.3196,0.3198,0.32,0.3075,0.3047,0.3136,0.313,0.3148,0.3151,0.3135,0.3187,0.3146,0.3125,0.3072,0.3097,0.3092,0.3208,0.3366,0.3496,0.3417,0.338,0.345,0.3305,0.3208,0.3112,0.3124,0.3242,0.3237,0.3232,0.3229,0,0.3229,0.324,0.3212,0.3279,0.3293,0.3282,0.3314,0.3271,0.3288,0.3224,0.3215,0.327,0.3317,0.3455,0.3561,0.3642,0.3567,0.3724,0.3557,0.3562,0.3417,0.3309,0.2924,0.2906,0.367,0.3667,0.3665,0,0.3401,0.3369,0.3423,0.3408,0.3379,0.345,0.3397,0.342,0.342,0.3379,0.3459,0.3427,0.3581,0.3614,0.3742,0.3788,0.3798,0.3883,0.3909,0.378,0.3766,0.3679,0.3575,0.3956,0.3956,0.3956,0.3957,0,0.36,0.3553,0.3491,0.3512,0.3562,0.3544,0.3573,0.3602,0.3596,0.3583,0.3578,0.3614,0.3637,0.3705,0.3843,0.3899,0.3882,0.3983,0.3958,0.3956,0.3852,0.3844,0.35,0.3957,0.3958,0.3958,0.3958,0,0.3747,0.3729,0.361,0.3691,0.3679,0.365,0.3702,0.3682,0.3696,0.373,0.3748,0.3824,0.3825,0.3935,0.3975,0.4001,0.4056,0.4116,0.4116,0.4109,0.4207,0.4008,0.3791,0.3648,0.4169,0.417,0.4172,0,0.4009,0.385,0.3888,0.3832,0.3794,0.3918,0.3882,0.3916,0.3963,0.395,0.4027,0.4027,0.4136,0.4152,0.4148,0.4231,0.4192,0.424,0.4301,0.4302,0.4251,0.407,0.3901,0.3826,0.4191,0.4189,0.4187,0,0.4201,0.417,0.4169,0.415,0.4175,0.4197,0.4143,0.4146,0.4115,0.4166,0.4127,0.417,0.4244,0.4265,0.4332,0.4319,0.423,0.4396,0.44,0.4374,0.4178,0.4109,0.409,0.4266,0.4263,0.4261,0.4202,0,0.4428,0.4378,0.434,0.4235,0.4276,0.4267,0.4306,0.4315,0.4368,0.4402,0.4396,0.4468,0.4494,0.4508,0.4558,0.4484,0.4521,0.4582,0.4652,0.4535,0.4529,0.4516,0.4718,0.4721,0.4724,0.4727,0,0,0.4646,0.4516,0.4568,0.4473,0.4504,0.4605,0.4532,0.4558,0.46,0.4603,0.466,0.4688,0.4742,0.4697,0.4672,0.4699,0.4703,0.472,0.4598,0.4583,0.457,0.4556,0.4541,0.4732,0.4733,0.4734,0.4735,0,0.4692,0.4689,0.4573,0.4598,0.4604,0.4652,0.4639,0.4687,0.4719,0.4693,0.4764,0.4778,0.4807,0.4836,0.4852,0.474,0.4818,0.4759,0.464,0.4623,0.4604,0.4588,0.4571,0.4555,0.4742,0.4741,0.4741,0,0.4795,0.4762,0.4737,0.4696,0.4727,0.4689,0.4799,0.4822,0.4794,0.4912,0.4881,0.4938,0.4992,0.4968,0.4963,0.5001,0.4909,0.4957,0.4943,0.4939,0.4927,0.4905,0.4885,0.5139,0.514,0.514,0,0,0.4805,0.4748,0.4755,0.4701,0.4701,0.4771,0.4803,0.4852,0.4892,0.4916,0.4964,0.5,0.5016,0.5022,0.5057,0.5016,0.5045,0.4999,0.4981,0.4965,0.4952,0.4936,0.4915,0.5143,0.5143,0.5143,0,0,0.4848,0.4814,0.4803,0.4725,0.4765,0.4855,0.4877,0.4919,0.4958,0.4958,0.5043,0.5058,0.5039,0.5087,0.5114,0.5085,0.5169,0.5164,0.5038,0.5016,0.4998,0.4978,0.5234,0,0,0,0,0,0.4869,0.4803,0.479,0.478,0.4781,0.4827,0.4845,0.4944,0.4972,0.4985,0.5017,0.5093,0.5124,0.515,0.5159,0.5118,0.5181,0.5174,0.5168,0.4999,0.4975,0.4954,0,0,0,0,0,0,0.4865,0.4845,0.4796,0.4857,0.4862,0.4828,0.491,0.4937,0.4975,0.499,0.508,0.5096,0.5165,0.5152,0.5158,0.5118,0.5232,0.5178,0.5172,0.5167,0.4991,0.4971,0.4954,0,0,0,0,0,0.4863,0.4848,0.4791,0.4865,0.4869,0.4984,0.4912,0.4936,0.4971,0.5065,0.5085,0.5043,0.5162,0.5172,0.5157,0.5113,0.5229,0.5231,0.5174,0.517,0.5166,0.4981,0,0,0,0,0,0,0.4862,0.4902,0.4799,0.481,0.4885,0.4993,0.4999,0.4934,0.5046,0.5066,0.5032,0.5042,0.5159,0.5168,0.5175,0.5106,0.5226,0.5228,0.5229,0.5171,0.5167,0.5164,0,0,0,0,0,0,0.4913,0.4908,0.4804,0.4822,0.4837,0.5,0.5005,0.5013,0.5044,0.5007,0.5019,0.5034,0.5132,0.5164,0.517,0.5185,0.5223,0.5225,0.5227,0.5227,0.5168,0.5165,0,0,0,0,0,0,0.4916,0.4912,0.4821,0.4831,0.4844,0.4977,0.5013,0.4999,0.5085,0.4999,0.5093,0.5096,0.5125,0.5135,0.5167,0.5178,0.5183,0.5223,0.5225,0.5226,0.5226,0,0,0,0,0,0,0,0.4918,0.4877,0.473,0.4839,0.485,0.4911,0.4914,0.4917,0.5086,0.5089,0.5092,0.5094,0.5213,0.5215,0.5217,0.5172,0,0,0.5223,0.5224,0,0,0,0,0,0,0,0,0.4885,0.4879,0.473,0.4732,0.4734,0.4911,0.4914,0.4916,0.5086,0.5089,0.5091,0.5093,0.5213,0.5215,0.5217,0,0,0,0,0,0,0,0,0,0,0,0,0,0,0,0.473,0.4732,0,0.4911,0.4914,0.4916,0.5087,0.5089,0.5091,0.5092,0.5214,0.5215,0.5216,0,0,0,0,0,0,0,0,0,0,0,0,0,0,0,0,0,0,0,0,0,0,0,0,0,0,0,0,0,0,0,0,0,0,0,0,0,0,0,0,0,0,0,0,0,0,0,0,0,0,0,0,0,0,0,0,0,0,0,0,0,0,0,0,0,0,0,0,0]}],[{"header":{"parameterUnit":"kt","parameterCategory":2,"dx":1,"dy":1,"la1":30.253999710083008,"la2":30.299108505249023,"lo1":-89.0895004272461,"lo2":-89.04439544677734,"nx":28,"ny":28,"refTime":"2022-09-22T21:00:00:Z","depth":"0","parameterNumber":3,"parameterNumberName":"V-component_of_CURRENTS"},"data":[-0.1007,-0.094,-0.0898,-0.0788,-0.0727,-0.062,-0.0551,-0.0421,-0.029,-0.0061,0.011,0.0242,0.0451,0.0878,0.1289,0.1415,0.1795,0.1705,0.1915,0.1668,0.1639,0.1611,0.1642,0.19,0.1901,0.2489,0.2494,0.2499,-0.1037,-0.0978,-0.0911,-0.0807,-0.0755,-0.0722,-0.0615,-0.0524,-0.0382,-0.0222,-0.0068,0.0168,0.0383,0.0542,0.0727,0.0931,0.108,0.1087,0.125,0.1422,0.089,0.089,0.0992,0.0992,0.0992,0.0992,0.0991,0.0991,-0.1059,-0.1011,-0.0919,-0.0848,-0.0795,-0.0721,-0.0649,-0.0554,-0.0441,-0.025,-0.0192,-0.0007,0.015,0.0271,0.0347,0.0537,0.0553,0.063,0.0748,0.0738,0.0929,0.0244,0.0275,0.0274,0.0273,0.0272,0.0271,0,-0.105,-0.1016,-0.0935,-0.0855,-0.0798,-0.0722,-0.0634,-0.0595,-0.0462,-0.037,-0.0229,-0.0126,0.0016,0.0165,0.022,0.0279,0.0541,0.0337,0.0568,0.0849,0.0832,0.103,0.0416,0.0496,0.0496,0.0496,0.0496,0.0497,-0.1054,-0.1009,-0.0877,-0.0832,-0.0766,-0.0693,-0.0647,-0.054,-0.0474,-0.0317,-0.0267,-0.013,-0.0013,0.0132,0.0212,0.0301,0.0477,0.0348,0.0359,0.053,0.0651,0.0656,0.0828,0.0498,0.0498,0.0498,0.0498,0,-0.1076,-0.0963,-0.0865,-0.0728,-0.07,-0.0656,-0.054,-0.049,-0.0404,-0.0307,-0.0273,-0.0124,0.0003,0.0117,0.0276,0.0279,0.0481,0.0358,0.0402,0.0406,0.0511,0.0614,0.0757,0.0966,0.0314,0.0311,0.0309,0,-0.1013,-0.0957,-0.0789,-0.0744,-0.0684,-0.0578,-0.0517,-0.0447,-0.0346,-0.0273,-0.0178,-0.01,0.0051,0.0146,0.0224,0.0289,0.0361,0.0326,0.0329,0.0404,0.0398,0.0607,0.0716,0.0472,0.0471,0.0471,0.047,0,-0.1002,-0.085,-0.076,-0.0718,-0.0568,-0.0535,-0.0476,-0.0377,-0.0321,-0.0215,-0.0166,-0.0044,0.0026,0.0123,0.0219,0.0222,0.0361,0.0378,0.0322,0.0314,0.0413,0.0408,0.068,0.047,0.047,0.047,0.0469,0,-0.0922,-0.0821,-0.0714,-0.0585,-0.055,-0.0513,-0.0424,-0.037,-0.0262,-0.0211,-0.0125,-0.0058,0.0045,0.0058,0.0202,0.0169,0.0219,0.0273,0.0277,0.0189,0.0168,0.0295,0.0334,0.0548,0.0292,0.029,0.0289,0,-0.0952,-0.0796,-0.0689,-0.0615,-0.0538,-0.0458,-0.0418,-0.0338,-0.0271,-0.0196,-0.0113,-0.0048,-0.0022,0.0014,0.008,0.0156,0.0202,0.0153,0.0256,0.0258,0.0164,0.0179,0.0263,0.0313,0.0272,0.0274,0.0275,0,-0.0949,-0.0715,-0.0712,-0.0648,-0.0523,-0.0464,-0.0417,-0.0321,-0.0279,-0.0202,-0.0137,-0.0067,-0.0022,0.0008,0.005,0.0111,0.0172,0.0123,0.0126,0.0148,0.0278,0.0168,0.0169,0.02,0.0202,0.0204,0.0262,0,-0.0849,-0.0765,-0.0724,-0.0575,-0.0523,-0.0464,-0.0362,-0.0323,-0.0277,-0.0213,-0.0143,-0.0088,-0.0024,-0.0005,0.0013,0.0083,0.0078,0.0092,0.011,0.0126,0.0144,0.0154,0.0035,0.0035,0.0035,0.0035,0,0,-0.0917,-0.0763,-0.0637,-0.0559,-0.051,-0.0419,-0.0365,-0.0316,-0.0217,-0.0184,-0.0179,-0.0079,-0.0048,0.0015,0.0021,0.0028,0.0052,0.0045,0.0104,0.0112,0.0119,0.0138,0.0148,0.0035,0.0035,0.0035,0.0035,0,-0.0835,-0.0737,-0.0654,-0.0583,-0.0461,-0.0398,-0.038,-0.0261,-0.0228,-0.0181,-0.0147,-0.0104,-0.0056,-0.001,0.0013,0.0025,0.0062,0.0029,0.0044,0.0103,0.011,0.0117,0.0137,0.0145,0.0036,0.0036,0.0036,0,-0.0816,-0.0693,-0.064,-0.0483,-0.0415,-0.0351,-0.0298,-0.0233,-0.0197,-0.0158,-0.0121,-0.0089,-0.005,-0.0015,0.0,0.0006,0.0073,0.0043,0.0043,0.0055,0.0117,0.0124,0.0131,0.005,0.005,0.005,0,0,-0.0772,-0.0669,-0.052,-0.0458,-0.0411,-0.0317,-0.0282,-0.0234,-0.0174,-0.0161,-0.0119,-0.0086,-0.0054,-0.0034,-0.0005,0.0026,0.0054,0.0045,0.0044,0.0044,0.0055,0.0116,0.0123,0.0051,0.0051,0.0051,0,0,-0.0759,-0.0554,-0.0514,-0.0421,-0.034,-0.0223,-0.0211,-0.0171,-0.0142,-0.0147,-0.01,-0.0091,-0.0063,-0.0042,-0.0046,0.0011,0.0013,0.0015,0.0004,0.0004,0.0003,0.001,-0.0011,0,0,0,0,0,-0.0609,-0.0568,-0.0532,-0.05,-0.0331,-0.0234,-0.022,-0.0165,-0.0157,-0.0151,-0.0124,-0.0098,-0.0035,-0.0039,-0.0028,-0.0007,0.0052,0.0051,0.0051,0.0044,0.0043,0.0042,0,0,0,0,0,0,-0.0595,-0.0553,-0.0533,-0.0407,-0.0369,-0.0235,-0.0208,-0.0194,-0.0157,-0.0154,-0.0104,-0.0096,-0.0065,-0.0041,-0.0032,-0.0012,-0.0013,0.0051,0.0051,0.0051,0.0044,0.0043,0.0042,0,0,0,0,0,-0.0584,-0.055,-0.0282,-0.041,-0.0377,-0.0289,-0.021,-0.0197,-0.0178,-0.0113,-0.0104,-0.0138,-0.0066,-0.0057,-0.0036,-0.0017,-0.0019,-0.0016,0.0051,0.0051,0.0051,0.0043,0,0,0,0,0,0,-0.0576,-0.0563,-0.0276,-0.0266,-0.0414,-0.0298,-0.0273,-0.0201,-0.0141,-0.0129,-0.0145,-0.0143,-0.0066,-0.0059,-0.0052,-0.002,-0.0024,-0.002,-0.0018,0.0051,0.0051,0.0051,0,0,0,0,0,0,-0.0581,-0.0555,-0.0271,-0.028,-0.0271,-0.0306,-0.0283,-0.025,-0.0142,-0.0179,-0.0174,-0.0145,-0.0081,-0.0061,-0.0055,-0.0006,-0.0027,-0.0024,-0.0022,-0.0021,0.0051,0.0051,0,0,0,0,0,0,-0.057,-0.0548,-0.0283,-0.0276,-0.0268,-0.016,-0.028,-0.0119,-0.0123,-0.0185,-0.0123,-0.0123,-0.0084,-0.0077,-0.0057,-0.0011,-0.0008,-0.0027,-0.0025,-0.0023,-0.0023,0,0,0,0,0,0,0,-0.0561,-0.0708,-0.0324,-0.0272,-0.0266,-0.0173,-0.0171,-0.0169,-0.0123,-0.0123,-0.0123,-0.0123,-0.0044,-0.0041,-0.0037,-0.0015,0,0,-0.0027,-0.0026,0,0,0,0,0,0,0,0,-0.0718,-0.0711,-0.0324,-0.0321,-0.0319,-0.0172,-0.0171,-0.017,-0.0123,-0.0123,-0.0123,-0.0123,-0.0043,-0.004,-0.0038,0,0,0,0,0,0,0,0,0,0,0,0,0,0,0,-0.0324,-0.0321,0,-0.0172,-0.0171,-0.017,-0.0123,-0.0123,-0.0123,-0.0123,-0.0042,-0.004,-0.0038,0,0,0,0,0,0,0,0,0,0,0,0,0,0,0,0,0,0,0,0,0,0,0,0,0,0,0,0,0,0,0,0,0,0,0,0,0,0,0,0,0,0,0,0,0,0,0,0,0,0,0,0,0,0,0,0,0,0,0,0,0,0,0,0,0,0,0,0,0]}]],[[{"header":{"parameterUnit":"kt","parameterCategory":2,"dx":1,"dy":1,"la1":30.253999710083008,"la2":30.299108505249023,"lo1":-89.0895004272461,"lo2":-89.04439544677734,"nx":28,"ny":28,"refTime":"2022-09-22T21:00:00:Z","depth":"2","parameterNumber":2,"parameterNumberName":"U-component_of_CURRENTS"},"data":[-0.0942,-0.0995,-0.0915,-0.0858,-0.0816,-0.0716,-0.0563,-0.0436,-0.0433,-0.0432,-0.0454,-0.0717,-0.0835,-0.0785,-0.0782,-0.058,-0.0505,-0.0471,-0.0566,-0.0654,-0.0658,-0.0675,-0.0625,0,0,0,0,0,-0.0814,-0.0758,-0.0843,-0.0863,-0.0908,-0.0854,-0.079,-0.0724,-0.0556,-0.0632,-0.0557,-0.0671,-0.0718,-0.072,-0.0515,-0.053,-0.048,-0.0474,-0.0535,-0.0544,-0.0551,-0.0509,-0.0467,-0.0465,-0.0464,-0.0462,0,0,-0.0601,-0.0682,-0.0773,-0.0761,-0.0839,-0.0818,-0.0782,-0.0803,-0.0779,-0.0685,-0.0717,-0.0621,-0.0838,-0.0701,-0.0638,-0.0476,-0.0519,-0.0607,-0.0612,-0.0617,-0.0578,-0.0564,-0.0554,-0.0554,-0.0554,-0.0554,-0.0554,0,-0.0453,-0.0405,-0.0607,-0.0698,-0.0736,-0.0841,-0.0887,-0.0879,-0.0909,-0.0887,-0.0797,-0.0717,-0.0643,-0.0613,-0.0596,-0.0555,-0.0645,-0.0648,-0.0669,-0.0691,-0.0684,-0.069,-0.069,-0.0701,-0.0702,-0.0702,-0.0703,-0.0703,-0.0096,-0.0272,-0.0497,-0.0561,-0.0675,-0.0757,-0.0811,-0.0872,-0.091,-0.0878,-0.0884,-0.0788,-0.0707,-0.0668,-0.0616,-0.0582,-0.0626,-0.0667,-0.0648,-0.0652,-0.0657,-0.0657,-0.0656,-0.0709,-0.0708,-0.0707,-0.0707,0,0.0027,-0.0088,-0.0418,-0.0688,-0.0702,-0.0771,-0.0871,-0.0913,-0.0883,-0.0882,-0.0848,-0.0814,-0.0721,-0.0698,-0.0683,-0.0694,-0.0684,-0.0696,-0.072,-0.0723,-0.0668,-0.0665,-0.067,-0.0667,-0.0666,-0.0664,-0.0663,0,0.0104,-0.0096,-0.026,-0.0507,-0.0634,-0.0811,-0.0857,-0.0886,-0.0891,-0.0901,-0.0829,-0.0801,-0.0734,-0.072,-0.07,-0.0671,-0.0707,-0.0678,-0.0682,-0.0705,-0.0702,-0.0762,-0.0763,-0.0745,-0.0745,-0.0744,-0.0744,0,0.0209,-0.0093,-0.0286,-0.0457,-0.0823,-0.0826,-0.0895,-0.0912,-0.0949,-0.0869,-0.0834,-0.0784,-0.0742,-0.0723,-0.0688,-0.0674,-0.0697,-0.07,-0.0683,-0.068,-0.0733,-0.0732,-0.0743,-0.0743,-0.0743,-0.0743,-0.0743,0,0.0178,-0.007,-0.0266,-0.0677,-0.071,-0.0775,-0.0895,-0.0956,-0.0925,-0.0873,-0.0806,-0.0755,-0.0734,-0.0688,-0.0691,-0.0658,-0.0672,-0.0683,-0.0686,-0.0655,-0.0661,-0.0701,-0.0699,-0.0726,-0.0725,-0.0725,-0.0725,0,0.0109,-0.0094,-0.0233,-0.0477,-0.0661,-0.0753,-0.0825,-0.0848,-0.0816,-0.0802,-0.0752,-0.0749,-0.0709,-0.0668,-0.0661,-0.067,-0.0687,-0.0666,-0.0721,-0.0724,-0.0636,-0.0623,-0.0645,-0.0693,-0.0719,-0.072,-0.072,0,0.0084,-0.0246,-0.0241,-0.0334,-0.0514,-0.0659,-0.0695,-0.0749,-0.0733,-0.0697,-0.0698,-0.074,-0.0655,-0.0702,-0.0705,-0.0706,-0.0683,-0.0679,-0.0681,-0.0675,-0.0693,-0.0625,-0.0623,-0.0655,-0.0655,-0.0655,-0.0716,0,-0.0062,-0.0162,-0.0286,-0.0293,-0.0418,-0.0599,-0.0641,-0.0631,-0.058,-0.0595,-0.0583,-0.0613,-0.0649,-0.0658,-0.0686,-0.0707,-0.0705,-0.071,-0.071,-0.0712,-0.0743,-0.0746,-0.073,-0.0731,-0.0732,-0.0733,0,0,0.0029,-0.006,-0.015,-0.0216,-0.0372,-0.0363,-0.043,-0.048,-0.0587,-0.0575,-0.0504,-0.0593,-0.062,-0.0708,-0.0693,-0.0737,-0.0734,-0.0708,-0.0723,-0.0722,-0.0721,-0.0749,-0.075,-0.0735,-0.0735,-0.0736,-0.0736,0,-0.0019,-0.0041,-0.0074,-0.0195,-0.028,-0.0376,-0.0377,-0.0519,-0.0491,-0.0539,-0.0524,-0.0511,-0.0612,-0.0653,-0.0698,-0.0744,-0.0738,-0.074,-0.0721,-0.0732,-0.0729,-0.0726,-0.0753,-0.0753,-0.0739,-0.0739,-0.0739,0,0.0123,0.0019,-0.0046,-0.0163,-0.0235,-0.0331,-0.0343,-0.0498,-0.0535,-0.053,-0.0543,-0.0546,-0.0625,-0.0672,-0.0679,-0.0685,-0.0748,-0.0742,-0.0739,-0.0747,-0.076,-0.0757,-0.0755,-0.0777,-0.0777,-0.0776,0,0,0.0171,0.0053,-0.006,-0.017,-0.02,-0.0311,-0.0418,-0.0424,-0.0536,-0.0524,-0.0535,-0.0551,-0.0607,-0.0609,-0.0666,-0.0737,-0.076,-0.074,-0.0739,-0.0737,-0.0744,-0.0756,-0.0755,-0.0775,-0.0775,-0.0775,0,0,0.0104,-0.0086,0.008,-0.0078,-0.0172,-0.0472,-0.0576,-0.0566,-0.0574,-0.0498,-0.0534,-0.0534,-0.0537,-0.0587,-0.0561,-0.064,-0.0656,-0.0664,-0.0585,-0.0584,-0.0582,-0.0568,-0.0549,0,0,0,0,0,0.0057,-0.0077,0.008,0.004,-0.019,-0.0484,-0.0526,-0.0594,-0.0515,-0.0521,-0.0505,-0.0489,-0.0573,-0.0551,-0.0572,-0.0559,-0.0753,-0.0757,-0.0761,-0.0678,-0.0676,-0.0674,0,0,0,0,0,0,0.0038,0.0002,0.007,-0.0215,-0.0278,-0.0478,-0.0433,-0.0451,-0.051,-0.049,-0.0501,-0.0495,-0.0522,-0.0542,-0.0561,-0.0546,-0.0542,-0.0755,-0.0758,-0.0761,-0.0677,-0.0675,-0.0674,0,0,0,0,0,0.0022,-0.0009,-0.0299,-0.022,-0.0273,-0.0433,-0.0419,-0.0435,-0.0407,-0.0544,-0.0533,-0.0445,-0.0529,-0.0536,-0.0553,-0.0536,-0.0529,-0.0536,-0.0757,-0.0759,-0.0762,-0.0676,0,0,0,0,0,0,0.0009,-0.0005,-0.0316,-0.0347,-0.0135,-0.0417,-0.0435,-0.042,-0.0446,-0.0455,-0.0497,-0.0482,-0.0536,-0.054,-0.0547,-0.0528,-0.0519,-0.0526,-0.053,-0.0759,-0.0761,-0.0763,0,0,0,0,0,0,0.0004,-0.0024,-0.033,-0.0216,-0.0231,-0.0403,-0.0419,-0.0521,-0.0437,-0.0383,-0.0383,-0.0489,-0.0478,-0.0544,-0.0549,-0.0714,-0.0511,-0.0517,-0.0522,-0.0525,-0.076,-0.0762,0,0,0,0,0,0,-0.0015,-0.004,-0.0205,-0.0217,-0.0229,-0.0538,-0.0488,-0.0654,-0.0517,-0.0371,-0.0494,-0.0484,-0.0482,-0.0488,-0.0551,-0.0715,-0.0714,-0.0511,-0.0515,-0.0519,-0.0521,0,0,0,0,0,0,0,-0.003,0.022,-0.0186,-0.0218,-0.0228,-0.0633,-0.0637,-0.064,-0.0515,-0.0506,-0.0497,-0.0488,-0.0471,-0.0479,-0.0487,-0.0716,0,0,-0.051,-0.0513,0,0,0,0,0,0,0,0,0.0222,0.022,-0.0187,-0.0196,-0.0205,-0.0634,-0.0636,-0.0639,-0.0513,-0.0506,-0.0499,-0.0492,-0.0474,-0.048,-0.0486,0,0,0,0,0,0,0,0,0,0,0,0,0,0,0,-0.0188,-0.0195,0,-0.0634,-0.0636,-0.0639,-0.0512,-0.0506,-0.05,-0.0494,-0.0475,-0.048,-0.0485,0,0,0,0,0,0,0,0,0,0,0,0,0,0,0,0,0,0,0,0,0,0,0,0,0,0,0,0,0,0,0,0,0,0,0,0,0,0,0,0,0,0,0,0,0,0,0,0,0,0,0,0,0,0,0,0,0,0,0,0,0,0,0,0,0,0,0,0,0]}],[{"header":{"parameterUnit":"kt","parameterCategory":2,"dx":1,"dy":1,"la1":30.253999710083008,"la2":30.299108505249023,"lo1":-89.0895004272461,"lo2":-89.04439544677734,"nx":28,"ny":28,"refTime":"2022-09-22T21:00:00:Z","depth":"2","parameterNumber":3,"parameterNumberName":"V-component_of_CURRENTS"},"data":[-0.0913,-0.0833,-0.0792,-0.069,-0.0649,-0.0543,-0.0473,-0.0332,-0.0194,0.0004,0.0128,0.0332,0.0466,0.0654,0.0893,0.1051,0.0993,0.1089,0.0939,0.0838,0.0816,0.0905,0.0885,0,0,0,0,0,-0.0928,-0.0886,-0.0824,-0.0721,-0.0667,-0.065,-0.0528,-0.0415,-0.0235,-0.0061,0.0132,0.0277,0.0547,0.0634,0.1015,0.1197,0.1222,0.1093,0.1041,0.1021,0.1002,0.1001,0.1209,0.1209,0.1209,0.1209,0,0,-0.0948,-0.0903,-0.0813,-0.0762,-0.0709,-0.0639,-0.0554,-0.043,-0.0274,-0.0049,0.002,0.0192,0.0334,0.0675,0.0822,0.0982,0.096,0.0882,0.0871,0.0858,0.0855,0.0861,0.1022,0.1021,0.102,0.1019,0.1018,0,-0.0927,-0.0886,-0.0801,-0.0744,-0.0702,-0.0601,-0.0512,-0.0456,-0.0283,-0.0166,-0.0018,0.0087,0.034,0.0531,0.0709,0.0772,0.0659,0.0726,0.0546,0.0666,0.0669,0.0666,0.0647,0.0793,0.0791,0.0789,0.0788,0.0787,-0.0879,-0.085,-0.071,-0.0669,-0.0628,-0.0556,-0.0512,-0.0372,-0.0289,-0.0113,-0.0069,0.0054,0.0161,0.0329,0.0499,0.0617,0.0446,0.0666,0.0648,0.0474,0.0473,0.0461,0.0449,0.0761,0.0765,0.0767,0.0769,0,-0.0839,-0.0743,-0.0655,-0.0529,-0.0505,-0.0474,-0.0339,-0.029,-0.0202,-0.0109,-0.009,0.0042,0.0122,0.0193,0.0268,0.0331,0.0391,0.0422,0.0483,0.0503,0.0438,0.043,0.0561,0.0564,0.0567,0.0569,0.0571,0,-0.0716,-0.0669,-0.0526,-0.0504,-0.0453,-0.0344,-0.0303,-0.024,-0.0145,-0.0076,-0.0018,0.0031,0.0093,0.0158,0.0172,0.027,0.025,0.0317,0.0331,0.0378,0.0387,0.0219,0.0213,0.0265,0.0264,0.0263,0.0262,0,-0.0652,-0.0525,-0.0471,-0.0428,-0.0286,-0.0281,-0.0221,-0.0149,-0.0087,-0.0035,0.0,0.0045,0.0075,0.0106,0.0144,0.0122,0.0223,0.0202,0.0287,0.0292,0.0382,0.0392,0.0261,0.0261,0.0261,0.0261,0.026,0,-0.0545,-0.0457,-0.0409,-0.0259,-0.0245,-0.0233,-0.0156,-0.0109,-0.0047,-0.0027,0.0,0.0025,0.0056,0.0032,0.01,0.0065,0.0089,0.0109,0.0113,0.0184,0.0172,0.0335,0.0394,0.0156,0.0155,0.0154,0.0153,0,-0.0494,-0.0408,-0.0312,-0.0271,-0.0229,-0.0156,-0.013,-0.0081,-0.0048,-0.0013,-0.0002,0.001,-0.0006,-0.0013,0.0004,0.0032,0.0058,0.0009,0.0093,0.0097,0.0161,0.0193,0.0264,0.0368,0.0138,0.0139,0.014,0,-0.0444,-0.0273,-0.0284,-0.0249,-0.0167,-0.0119,-0.0105,-0.005,-0.0027,-0.0029,0.0007,-0.0019,-0.001,-0.0013,-0.0017,-0.0002,0.0035,-0.0011,-0.0009,0.0046,0.0108,0.0165,0.0181,0.0021,0.0023,0.0024,0.0129,0,-0.0301,-0.027,-0.0247,-0.0192,-0.0151,-0.0114,-0.0055,-0.0049,-0.0038,0.0001,-0.0003,-0.0019,-0.0016,-0.003,-0.004,-0.0022,-0.0014,-0.0023,-0.0008,-0.0014,0.003,0.004,-0.0065,-0.0064,-0.0064,-0.0064,0,0,-0.0314,-0.0241,-0.0161,-0.0132,-0.009,-0.0044,-0.0029,-0.0001,0.0041,0.0052,0.0029,0.0017,-0.0005,-0.0001,-0.0015,-0.0037,-0.0017,-0.0037,-0.0025,-0.0021,-0.0017,0.0026,0.0034,-0.0063,-0.0063,-0.0063,-0.0063,0,-0.0228,-0.0197,-0.0172,-0.0125,-0.007,-0.0018,-0.0014,0.006,0.007,0.0054,0.0061,0.004,-0.0005,0.0006,0.0001,-0.0035,-0.0009,-0.0054,-0.0053,-0.0025,-0.0021,-0.0017,0.0025,0.0033,-0.0063,-0.0063,-0.0063,0,-0.0208,-0.013,-0.0107,-0.0026,-0.0001,0.0028,0.0079,0.0118,0.0137,0.0127,0.0103,0.0087,0.0072,0.0037,0.0014,0.0015,0.0001,-0.0024,-0.0026,-0.0006,0.0026,0.0029,0.0032,-0.0001,-0.0,-0.0,0,0,-0.0171,-0.0113,-0.0029,-0.0009,0.0005,0.0068,0.0095,0.0125,0.015,0.0141,0.013,0.0103,0.0086,0.0057,0.0039,-0.0006,0.0024,-0.0016,-0.0019,-0.0021,-0.0003,0.0028,0.003,0.0001,0.0001,0.0001,0,0,-0.0138,-0.0009,-0.003,0.0014,0.0058,0.0168,0.0168,0.02,0.0179,0.0152,0.0154,0.0143,0.0096,0.008,0.0094,0.0045,0.0057,0.0053,0.0054,0.005,0.0047,0.0078,0.0111,0,0,0,0,0,-0.0037,-0.0016,-0.0037,-0.0021,0.0074,0.0163,0.0174,0.0214,0.0213,0.0207,0.0177,0.0178,0.009,0.0103,0.0093,0.0083,0.0014,0.0011,0.0009,0.0001,-0.0003,-0.0006,0,0,0,0,0,0,-0.0029,-0.0009,-0.0035,0.0075,0.0099,0.0162,0.0185,0.0195,0.0214,0.0214,0.0186,0.0179,0.0174,0.0107,0.0099,0.0089,0.0113,0.0013,0.0011,0.0009,-0.0,-0.0003,-0.0006,0,0,0,0,0,-0.0022,-0.0006,0.0129,0.0075,0.0095,0.0162,0.0183,0.0192,0.0189,0.0199,0.0193,0.0216,0.0175,0.0165,0.0102,0.0093,0.0119,0.0116,0.0012,0.001,0.0009,-0.0002,0,0,0,0,0,0,-0.0017,-0.0013,0.0134,0.0142,0.0068,0.0157,0.0169,0.0188,0.0169,0.017,0.0229,0.0229,0.0176,0.0168,0.016,0.0095,0.0123,0.012,0.0118,0.001,0.0009,0.0008,0,0,0,0,0,0,-0.002,-0.0007,0.0138,0.0125,0.0132,0.0152,0.0163,0.0134,0.0164,0.0196,0.0199,0.0229,0.0155,0.017,0.0164,0.012,0.0127,0.0124,0.0122,0.0121,0.0009,0.0008,0,0,0,0,0,0,-0.0013,-0.0002,0.0122,0.0128,0.0134,0.0225,0.0121,0.0187,0.0242,0.0191,0.024,0.0239,0.0155,0.0151,0.0167,0.0125,0.0121,0.0127,0.0125,0.0123,0.0122,0,0,0,0,0,0,0,-0.0008,-0.0098,0.0095,0.013,0.0135,0.0225,0.0226,0.0227,0.0241,0.0241,0.024,0.024,0.0144,0.014,0.0137,0.013,0,0,0.0127,0.0126,0,0,0,0,0,0,0,0,-0.0102,-0.0099,0.0096,0.0098,0.0101,0.0225,0.0226,0.0227,0.0241,0.0241,0.024,0.024,0.0143,0.014,0.0138,0,0,0,0,0,0,0,0,0,0,0,0,0,0,0,0.0096,0.0098,0,0.0225,0.0226,0.0227,0.0241,0.0241,0.024,0.024,0.0142,0.014,0.0138,0,0,0,0,0,0,0,0,0,0,0,0,0,0,0,0,0,0,0,0,0,0,0,0,0,0,0,0,0,0,0,0,0,0,0,0,0,0,0,0,0,0,0,0,0,0,0,0,0,0,0,0,0,0,0,0,0,0,0,0,0,0,0,0,0,0,0,0,0]}]],[[{"header":{"parameterUnit":"kt","parameterCategory":2,"dx":1,"dy":1,"la1":30.253999710083008,"la2":30.299108505249023,"lo1":-89.0895004272461,"lo2":-89.04439544677734,"nx":28,"ny":28,"refTime":"2022-09-22T21:00:00:Z","depth":"4","parameterNumber":2,"parameterNumberName":"U-component_of_CURRENTS"},"data":[-0.1302,-0.135,-0.1358,-0.1149,-0.1088,-0.1066,-0.1159,-0.1318,-0.1124,-0.1391,-0.1203,-0.1604,-0.1367,-0.16,-0.134,-0.1368,-0.1859,-0.1594,-0.1592,-0.2533,-0.2591,-0.2642,-0.2686,0,0,0,0,0,-0.1363,-0.1411,-0.1429,-0.1449,-0.1468,-0.1545,-0.1661,-0.1754,-0.1962,-0.1719,-0.199,-0.1684,-0.1621,-0.1417,-0.1397,-0.1541,-0.2042,-0.1518,-0.2316,-0.2569,-0.2633,-0.2654,0,0,0,0,0,0,-0.1486,-0.1537,-0.1631,-0.1728,-0.1824,-0.1785,-0.192,-0.1843,-0.1987,-0.2426,-0.2021,-0.2145,-0.2229,-0.2047,-0.1839,-0.193,-0.2025,-0.2226,-0.2304,-0.2368,-0.2319,-0.1993,-0.1381,0,0,0,0,0,-0.1555,-0.1702,-0.1796,-0.1882,-0.2036,-0.2139,-0.229,-0.232,-0.2678,-0.3155,-0.2866,-0.2908,-0.2604,-0.2482,-0.2501,-0.2359,-0.3185,-0.2873,-0.2913,-0.3239,-0.305,-0.2933,-0.2959,-0.2876,-0.2884,-0.2889,-0.2892,0,-0.1663,-0.1718,-0.1946,-0.2025,-0.2189,-0.2419,-0.2533,-0.298,-0.3061,-0.3435,-0.3442,-0.3521,-0.3632,-0.3032,-0.316,-0.3064,-0.3031,-0.3035,-0.3381,-0.3154,-0.3018,-0.3029,-0.3036,-0.2943,-0.2939,-0.2935,-0.2931,0,-0.1696,-0.1858,-0.1954,-0.2185,-0.2287,-0.2442,-0.278,-0.295,-0.3499,-0.3817,-0.407,-0.4354,-0.4125,-0.4278,-0.4132,-0.4054,-0.3781,-0.3552,-0.3925,-0.3794,-0.3136,-0.3123,-0.3028,-0.3009,-0.2993,-0.298,-0.2969,0,-0.1792,-0.1872,-0.208,-0.2141,-0.2314,-0.2469,-0.2759,-0.3073,-0.3547,-0.3738,-0.4381,-0.4411,-0.483,-0.4714,-0.46,-0.4139,-0.4434,-0.3898,-0.3749,-0.4298,-0.4278,-0.4195,-0.4162,-0.451,-0.4512,-0.4514,-0.4516,0,-0.1811,-0.196,-0.2068,-0.2119,-0.2303,-0.2468,-0.2621,-0.2973,-0.3151,-0.3851,-0.4146,-0.4535,-0.4725,-0.478,-0.4511,-0.4592,-0.4362,-0.4426,-0.3841,-0.379,-0.4196,-0.4159,-0.4519,-0.4519,-0.452,-0.4521,-0.4522,0,-0.1912,-0.1976,-0.21,-0.2218,-0.2265,-0.239,-0.2673,-0.2811,-0.3275,-0.3539,-0.3999,-0.4197,-0.4492,-0.4464,-0.4476,-0.4478,-0.4382,-0.4244,-0.423,-0.3692,-0.3399,-0.361,-0.385,-0.3847,-0.3845,-0.3843,-0.3841,0,-0.1875,-0.1996,-0.208,-0.218,-0.2213,-0.2344,-0.2485,-0.2646,-0.2867,-0.3234,-0.3472,-0.3793,-0.3759,-0.3998,-0.412,-0.4023,-0.4093,-0.4074,-0.3873,-0.3862,-0.344,-0.3569,-0.412,-0.381,-0.3814,-0.3817,-0.3819,0,-0.1819,-0.1992,-0.2017,-0.2059,-0.2176,-0.2208,-0.2359,-0.2518,-0.27,-0.2923,-0.3257,-0.3422,-0.3651,-0.37,-0.3752,-0.3839,-0.4003,-0.3752,-0.375,-0.3652,-0.4085,-0.3578,-0.3545,-0.4077,-0.4086,-0.4093,-0.3798,0,-0.1828,-0.1902,-0.1967,-0.2067,-0.2112,-0.2188,-0.2236,-0.2375,-0.2485,-0.2592,-0.2888,-0.3,-0.3257,-0.3254,-0.3234,-0.3517,-0.336,-0.3344,-0.3294,-0.3484,-0.3293,-0.3312,-0.3011,-0.3006,-0.3001,-0.2997,0,0,-0.1726,-0.1821,-0.1877,-0.1949,-0.1989,-0.2038,-0.2085,-0.2156,-0.2273,-0.2388,-0.2407,-0.2725,-0.2753,-0.2972,-0.3056,-0.3006,-0.2967,-0.3095,-0.3338,-0.3377,-0.3412,-0.325,-0.3272,-0.2988,-0.2987,-0.2985,-0.2983,0,-0.1711,-0.179,-0.1849,-0.1901,-0.1975,-0.1998,-0.2024,-0.2115,-0.2181,-0.2316,-0.2334,-0.2514,-0.2627,-0.272,-0.2753,-0.2925,-0.2877,-0.2929,-0.3186,-0.3292,-0.3337,-0.3376,-0.3226,-0.325,-0.2972,-0.2972,-0.2973,0,-0.1646,-0.1693,-0.1725,-0.1801,-0.1869,-0.1919,-0.1912,-0.1991,-0.2039,-0.2052,-0.223,-0.2304,-0.2318,-0.2485,-0.2553,-0.251,-0.277,-0.2701,-0.2722,-0.2786,-0.2891,-0.294,-0.2984,-0.2436,-0.2436,-0.2435,0,0,-0.1624,-0.1692,-0.1715,-0.179,-0.1825,-0.1875,-0.1914,-0.1938,-0.2,-0.2048,-0.2145,-0.2211,-0.2277,-0.2352,-0.2399,-0.2542,-0.2495,-0.265,-0.2674,-0.2696,-0.2771,-0.2881,-0.2926,-0.2434,-0.2434,-0.2433,0,0,-0.1609,-0.1653,-0.1674,-0.1743,-0.1792,-0.1836,-0.191,-0.1919,-0.2016,-0.2043,-0.2083,-0.2105,-0.2255,-0.2236,-0.2206,-0.2446,-0.2319,-0.2328,-0.254,-0.257,-0.2594,-0.2684,-0.2213,0,0,0,0,0,-0.1584,-0.1636,-0.1653,-0.1667,-0.1761,-0.1818,-0.1834,-0.1892,-0.1913,-0.1973,-0.2033,-0.2053,-0.2226,-0.22,-0.222,-0.2393,-0.241,-0.2414,-0.2418,-0.2718,-0.275,-0.2777,0,0,0,0,0,0,-0.1589,-0.1606,-0.1651,-0.169,-0.171,-0.1817,-0.1821,-0.1839,-0.1911,-0.1922,-0.2037,-0.2054,-0.2083,-0.2192,-0.221,-0.2376,-0.2208,-0.2412,-0.2415,-0.2418,-0.2729,-0.2755,-0.2778,0,0,0,0,0,-0.1593,-0.1607,-0.1749,-0.169,-0.1708,-0.178,-0.1823,-0.1838,-0.1925,-0.1967,-0.1989,-0.197,-0.208,-0.2102,-0.2203,-0.2369,-0.2196,-0.2202,-0.2414,-0.2417,-0.2419,-0.2742,0,0,0,0,0,0,-0.1596,-0.1641,-0.1754,-0.176,-0.1692,-0.1779,-0.1798,-0.1837,-0.1971,-0.1989,-0.1895,-0.1902,-0.2079,-0.2096,-0.2112,-0.237,-0.2186,-0.2193,-0.2197,-0.2416,-0.2418,-0.242,0,0,0,0,0,0,-0.1632,-0.1647,-0.1758,-0.1757,-0.1765,-0.1778,-0.1795,-0.1858,-0.1974,-0.1896,-0.1903,-0.1897,-0.2055,-0.2091,-0.2104,-0.22,-0.2179,-0.2185,-0.2189,-0.2192,-0.2418,-0.242,0,0,0,0,0,0,-0.1639,-0.1652,-0.1757,-0.1763,-0.177,-0.1856,-0.1837,-0.1941,-0.1944,-0.1892,-0.1946,-0.1948,-0.2049,-0.2063,-0.2098,-0.2189,-0.2197,-0.2179,-0.2183,-0.2186,-0.2188,0,0,0,0,0,0,0,-0.1645,-0.1552,-0.17,-0.1767,-0.1774,-0.1814,-0.1818,-0.1821,-0.1944,-0.1945,-0.1946,-0.1947,-0.2143,-0.215,-0.2157,-0.2179,0,0,-0.2178,-0.2181,0,0,0,0,0,0,0,0,-0.1548,-0.1551,-0.17,-0.17,-0.17,-0.1815,-0.1818,-0.182,-0.1944,-0.1945,-0.1946,-0.1947,-0.2145,-0.215,-0.2156,0,0,0,0,0,0,0,0,0,0,0,0,0,0,0,-0.17,-0.17,0,-0.1815,-0.1818,-0.182,-0.1944,-0.1945,-0.1946,-0.1946,-0.2146,-0.2151,-0.2155,0,0,0,0,0,0,0,0,0,0,0,0,0,0,0,0,0,0,0,0,0,0,0,0,0,0,0,0,0,0,0,0,0,0,0,0,0,0,0,0,0,0,0,0,0,0,0,0,0,0,0,0,0,0,0,0,0,0,0,0,0,0,0,0,0,0,0,0,0]}],[{"header":{"parameterUnit":"kt","parameterCategory":2,"dx":1,"dy":1,"la1":30.253999710083008,"la2":30.299108505249023,"lo1":-89.0895004272461,"lo2":-89.04439544677734,"nx":28,"ny":28,"refTime":"2022-09-22T21:00:00:Z","depth":"4","parameterNumber":3,"parameterNumberName":"V-component_of_CURRENTS"},"data":[-0.044,-0.0564,-0.0608,-0.0809,-0.0917,-0.1113,-0.1211,-0.1222,-0.1125,-0.1114,-0.0928,-0.0883,-0.0561,-0.0794,-0.0253,-0.0196,0.046,0.0136,0.0144,0.125,0.1295,0.1334,0.1016,0,0,0,0,0,-0.0389,-0.0467,-0.0626,-0.0787,-0.0989,-0.109,-0.1257,-0.1287,-0.13,-0.1207,-0.1188,-0.0995,-0.0657,-0.0516,-0.0274,-0.0287,0.0485,0.0009,0.0953,0.1278,0.1327,0.1001,0,0,0,0,0,0,-0.0326,-0.0419,-0.0542,-0.0708,-0.0924,-0.108,-0.1159,-0.1189,-0.1251,-0.119,-0.1185,-0.095,-0.0769,-0.0399,-0.0113,0.0179,0.0469,0.0847,0.0916,0.0967,0.0637,0.0194,0.0094,0,0,0,0,0,-0.0255,-0.0308,-0.0438,-0.0624,-0.0782,-0.0994,-0.1132,-0.1177,-0.1212,-0.1233,-0.111,-0.0861,-0.066,-0.0162,0.0097,0.0598,0.125,0.1239,0.128,0.157,0.1305,0.1341,0.1336,0.1514,0.152,0.1524,0.1527,0,-0.0146,-0.0228,-0.0431,-0.0546,-0.0628,-0.0805,-0.0941,-0.1011,-0.1067,-0.1076,-0.1022,-0.0792,-0.055,-0.0042,0.0417,0.1008,0.1126,0.1359,0.1664,0.138,0.141,0.1391,0.1372,0.1566,0.1563,0.156,0.1557,0,-0.0094,-0.0157,-0.0323,-0.0484,-0.0553,-0.0671,-0.0869,-0.0973,-0.0938,-0.0946,-0.081,-0.051,-0.0163,0.0242,0.0937,0.1185,0.1565,0.1607,0.1648,0.1696,0.1464,0.1427,0.1632,0.1617,0.1605,0.1595,0.1586,0,-0.0033,-0.0137,-0.0256,-0.0328,-0.0513,-0.057,-0.0742,-0.0756,-0.0763,-0.0805,-0.0453,-0.0357,0.034,0.0611,0.1064,0.134,0.1629,0.1662,0.1709,0.1994,0.1959,0.2074,0.2043,0.232,0.2318,0.2316,0.2315,0,0.0047,-0.009,-0.022,-0.0264,-0.0414,-0.0495,-0.0564,-0.0627,-0.0694,-0.0476,-0.0422,-0.0035,0.0215,0.0723,0.1099,0.1212,0.1622,0.1843,0.1687,0.1652,0.2052,0.2024,0.2312,0.2312,0.2311,0.2311,0.231,0,0.0102,0.0029,-0.0115,-0.0273,-0.0301,-0.0381,-0.0504,-0.0555,-0.0505,-0.0432,-0.0234,-0.0022,0.0292,0.0489,0.1029,0.0921,0.126,0.147,0.1489,0.1097,0.1074,0.1523,0.1621,0.1615,0.161,0.1605,0.16,0,0.0172,0.0059,0.0032,-0.0101,-0.017,-0.0174,-0.0256,-0.0285,-0.0259,-0.0207,-0.0004,0.0112,0.0262,0.0399,0.064,0.0914,0.1138,0.0928,0.1468,0.1479,0.1095,0.1099,0.1271,0.1523,0.1533,0.154,0.1545,0,0.0235,0.0156,0.0152,0.0088,0.006,0.0027,-0.0034,-0.0076,-0.0124,0.0016,0.004,0.0159,0.0337,0.0374,0.0498,0.0715,0.1012,0.0882,0.0898,0.1016,0.1547,0.1062,0.106,0.1226,0.1235,0.1242,0.1492,0,0.025,0.0204,0.0196,0.0156,0.0133,0.011,0.0112,0.0114,0.0159,0.0185,0.0248,0.039,0.0485,0.0488,0.0545,0.0714,0.0747,0.0844,0.0941,0.096,0.1043,0.1084,0.0612,0.0613,0.0614,0.0614,0,0,0.0317,0.0271,0.0311,0.0279,0.0253,0.032,0.0262,0.0285,0.0333,0.0332,0.0409,0.0508,0.0576,0.0597,0.06,0.0605,0.0755,0.0659,0.088,0.0908,0.0935,0.1021,0.1059,0.0616,0.0616,0.0617,0.0617,0,0.0331,0.0347,0.0315,0.0316,0.0335,0.0346,0.0341,0.0388,0.0415,0.0419,0.049,0.0561,0.0601,0.0654,0.0673,0.0617,0.0798,0.0615,0.0602,0.0878,0.0904,0.093,0.1018,0.1052,0.0619,0.0619,0.0619,0,0.0371,0.0375,0.0362,0.0365,0.0401,0.037,0.0449,0.0464,0.0433,0.0552,0.0567,0.0638,0.0679,0.07,0.0714,0.0741,0.0864,0.075,0.0744,0.0766,0.1057,0.1083,0.1106,0.0834,0.0835,0.0836,0,0,0.0386,0.0369,0.0383,0.0371,0.0381,0.043,0.0444,0.0473,0.0515,0.0543,0.0614,0.0664,0.0689,0.0723,0.0756,0.0774,0.0905,0.0777,0.0767,0.0759,0.0776,0.1061,0.1083,0.0839,0.0839,0.0839,0,0,0.0405,0.0405,0.0421,0.0399,0.0418,0.0468,0.0483,0.0509,0.056,0.0578,0.0663,0.0685,0.0711,0.0747,0.0777,0.0793,0.083,0.0826,0.0795,0.0783,0.0773,0.079,0.0875,0,0,0,0,0,0.0423,0.0395,0.0408,0.0407,0.0436,0.0449,0.0458,0.0517,0.0555,0.0562,0.0617,0.069,0.0768,0.0797,0.0815,0.0821,0.0879,0.0872,0.0865,0.0828,0.0814,0.0803,0,0,0,0,0,0,0.0422,0.0421,0.0409,0.0448,0.0455,0.0451,0.0513,0.0531,0.0556,0.0568,0.0673,0.0692,0.0757,0.0795,0.0809,0.0814,0.0871,0.0877,0.087,0.0865,0.0823,0.0812,0.0803,0,0,0,0,0,0.0422,0.0421,0.0446,0.0451,0.0457,0.0521,0.0516,0.0531,0.0567,0.0648,0.067,0.0609,0.0754,0.0772,0.0804,0.0805,0.0861,0.0866,0.0873,0.0868,0.0864,0.0818,0,0,0,0,0,0,0.0422,0.0455,0.045,0.0455,0.0466,0.0525,0.0535,0.053,0.065,0.0667,0.0588,0.0595,0.0751,0.0766,0.078,0.0798,0.0854,0.0859,0.0862,0.0869,0.0865,0.0862,0,0,0,0,0,0,0.0456,0.0459,0.0453,0.0468,0.0476,0.0528,0.0537,0.0581,0.0652,0.0586,0.0594,0.059,0.0739,0.0762,0.0773,0.0839,0.0848,0.0853,0.0856,0.0858,0.0866,0.0863,0,0,0,0,0,0,0.0459,0.0462,0.0468,0.0474,0.0481,0.0547,0.0573,0.061,0.0627,0.0582,0.0633,0.0636,0.0733,0.0746,0.0767,0.0829,0.0837,0.0848,0.0851,0.0854,0.0855,0,0,0,0,0,0,0,0.0461,0.0421,0.041,0.0479,0.0485,0.0497,0.0499,0.0502,0.0628,0.063,0.0632,0.0634,0.082,0.0825,0.0831,0.082,0,0,0.0848,0.085,0,0,0,0,0,0,0,0,0.0422,0.0421,0.041,0.041,0.0411,0.0497,0.0499,0.0501,0.0628,0.063,0.0632,0.0634,0.0822,0.0826,0.083,0,0,0,0,0,0,0,0,0,0,0,0,0,0,0,0.041,0.041,0,0.0497,0.0499,0.0501,0.0629,0.063,0.0632,0.0633,0.0823,0.0826,0.083,0,0,0,0,0,0,0,0,0,0,0,0,0,0,0,0,0,0,0,0,0,0,0,0,0,0,0,0,0,0,0,0,0,0,0,0,0,0,0,0,0,0,0,0,0,0,0,0,0,0,0,0,0,0,0,0,0,0,0,0,0,0,0,0,0,0,0,0,0]}]]]